Location: Haut Kerinec
(48.0623°N, 4.4081°W)
Time: 09:35:21
(UTC+00:00)

Daily predictions for brighter satellites

Satellite Brightness Start Highest point End
(mag) Time Altitude Azimuth Time Altitude Azimuth Time Altitude Azimuth
Cosmos 2279 Rocket 4.1 20:36:05 10° N 20:42:18 63° ENE 20:48:26 10° SSE
Cosmos 1850 Rocket 4.3 20:37:58 10° NNW 20:43:18 63° ENE 20:48:35 10° SE
STARLINK-1121 4.1 20:40:38 10° WNW 20:44:45 60° NNE 20:48:51 10° E
Cosmos 371 Rocket 3.4 20:40:02 10° S 20:44:48 61° ESE 20:49:38 10° NNE
SPOT 3 Rocket 4.0 20:40:12 10° S 20:45:18 64° WSW 20:50:28 10° NNW
STARLINK-1244 3.6 20:41:34 10° SW 20:45:42 78° SSE 20:49:51 10° ENE
STARLINK-1071 4.1 20:43:24 10° WNW 20:47:27 53° SW 20:51:29 10° SE
Abrixas rocket 1.9 20:45:22 10° W 20:48:19 72° SSW 20:51:15 10° ESE
Terra 3.6 20:45:47 10° ESE 20:49:02 19° ENE 20:52:18 10° NNE
Cosmos 2151 Rocket 3.8 20:44:33 10° N 20:49:03 61° ENE 20:53:32 10° SSE
STARLINK-1106 4.0 20:45:38 10° WNW 20:49:45 63° NNE 20:53:52 10° ESE
Spot 2 Rocket 3.8 20:45:03 10° SE 20:49:56 52° ENE 20:54:50 10° N
ERBS 3.5 20:46:53 10° WSW 20:50:04 46° NNW 20:53:18 10° NE
STARLINK-1138 3.6 20:46:33 10° WSW 20:50:41 83° SSE 20:54:51 10° ENE
SPOT 1/Viking Rocket 4.3 20:46:05 10° SE 20:50:52 40° ENE 20:55:39 10° N
STARLINK-1110 4.1 20:47:12 10° WNW 20:51:13 50° SW 20:55:13 10° SE
H-2A R/B 4.4 20:50:43 10° SW 20:54:35 22° W 20:58:34 10° NW
STARLINK-1112 3.9 20:50:35 10° WNW 20:54:43 65° NNE 20:58:51 10° ESE
CZ-2C R/B 4.3 20:51:06 10° N 20:55:33 63° WNW 21:00:02 10° SSW
STARLINK-1143 3.6 20:51:29 10° WSW 20:55:38 87° SSE 20:59:48 10° ENE
STARLINK-1124 4.3 20:53:24 10° WNW 20:57:22 45° SW 21:01:20 10° SE
STARLINK-1128 3.9 20:55:34 10° WNW 20:59:43 69° NNE 21:03:50 10° ESE
STARLINK-1241 3.7 20:56:30 10° WSW 21:00:39 88° NW 21:04:49 10° ENE
STARLINK-1122 4.4 20:58:24 10° WNW 21:02:19 42° SW 21:06:14 10° SSE
deb Kosmos-1763 4.5 21:00:04 10° NNW 21:03:34 49° ENE 21:06:57 11° SE
Cosmos 1300 Rocket 3.7 20:59:26 10° NNW 21:03:54 78° W 21:08:19 10° S
Aureole 2 Rocket 2.7 21:01:44 10° S 21:04:36 35° ESE 21:07:22 10° NE
STARLINK-1113 3.8 21:00:33 10° WNW 21:04:42 72° NNE 21:08:51 10° ESE
STARLINK-1239 3.7 21:01:28 10° WSW 21:05:38 83° NNW 21:09:47 10° ENE
STARLINK-1126 4.5 21:03:26 10° WNW 21:07:20 39° SW 21:11:06 11° SSE
STARLINK-1119 3.7 21:05:33 10° WNW 21:09:43 76° NNE 21:13:51 10° ESE
Cosmos 1437 Rocket 2.7 21:06:02 10° S 21:09:45 62° E 21:13:34 10° NNE
STARLINK-1240 3.8 21:06:26 10° WSW 21:10:35 79° NNW 21:14:45 10° ENE
Cosmos 1378 4.4 21:09:41 11° SE 21:12:29 24° E 21:15:32 10° NE
ISS -2.1 21:11:40 10° W 21:14:24 23° SW 21:17:02 10° SSE
STARLINK-1114 3.7 21:10:31 10° WNW 21:14:40 80° NNE 21:18:49 10° ESE
STARLINK-1203 3.9 21:11:16 10° WSW 21:15:28 75° NNW 21:19:41 10° ENE
STARLINK-1216 3.8 21:11:25 10° WSW 21:15:34 75° NNW 21:19:43 10° ENE
Meteor 1-15 Rocket 4.4 21:10:08 10° N 21:16:05 69° ENE 21:21:57 10° SSE
Cosmos 304 Rocket 3.9 21:11:32 10° S 21:16:12 57° ESE 21:20:56 10° NNE
NOSS 8 (E) 4.1 21:14:11 10° SW 21:17:24 86° SE 21:20:28 10° NE
Lacrosse 5 3.0 21:12:57 10° WNW 21:17:29 34° SW 21:22:00 10° SSE
USA 215 4.5 21:12:05 10° ENE 21:18:08 42° N 21:24:11 10° WNW
STARLINK-1130 (DARKSAT) 3.6 21:15:30 10° WNW 21:19:40 84° NNE 21:23:37 11° ESE
STARLINK-1237 3.9 21:16:25 10° WSW 21:20:33 71° NNW 21:24:42 10° ENE
NOSS 2-2 (D) 3.8 21:17:26 10° S 21:20:41 34° ESE 21:24:13 10° NE
CENTAUR R/B 3.9 21:14:20 10° NW 21:21:46 47° NE 21:30:02 10° ESE
CZ-2C R/B 4.0 21:18:24 10° N 21:23:43 45° WNW 21:29:01 10° SW
STARLINK-1084 3.6 21:20:29 10° WNW 21:24:39 89° NNE 21:28:24 12° ESE
ATLAS 3B R/B 4.3 21:18:56 10° NW 21:24:40 29° NNE 21:30:32 10° E
Cosmos 1674 Rocket 3.5 21:20:35 10° S 21:24:56 79° E 21:29:23 10° NNE
STARLINK-1202 4.0 21:21:25 10° WSW 21:25:33 68° NNW 21:29:41 10° ENE
SL-27 R/B 4.3 21:24:04 10° N 21:26:54 21° ENE 21:29:28 11° ESE
Cosmos 1378 Rocket 3.6 21:23:29 10° S 21:27:50 65° E 21:32:11 10° NNE
STARLINK-1098 3.6 21:25:28 10° WNW 21:29:38 86° SSW 21:33:11 14° ESE
Cosmos 1766 4.1 21:26:12 10° N 21:29:57 38° ENE 21:32:47 16° SE
STARLINK-1123 3.6 21:30:26 10° WNW 21:34:35 82° SSW 21:37:56 15° ESE
Cosmos 1833 Rocket 4.4 21:30:38 10° NW 21:35:12 26° WSW 21:39:45 10° SSW
STARLINK-1246 4.2 21:31:26 10° WSW 21:35:33 62° NNW 21:39:40 10° ENE
IGS 5A 3.6 21:31:57 11° S 21:35:57 71° W 21:40:07 10° NNW
Cosmos 2297 3.7 21:31:21 10° SSW 21:37:01 78° ESE 21:42:46 10° NNE
Cosmos 1943 Rocket 2.7 21:31:59 10° S 21:37:02 37° ESE 21:42:09 10° NE
NOSS 2-2 (E) 3.1 21:34:20 10° SSW 21:37:52 64° SE 21:41:54 10° NE
STARLINK-1097 3.6 21:35:26 10° WNW 21:39:35 77° SSW 21:42:45 17° SE
STARLINK-1224 4.3 21:36:26 10° W 21:40:32 59° NNW 21:44:39 10° ENE
Cosmos 332 Rocket 4.4 21:35:49 10° SW 21:40:40 60° WNW 21:45:32 10° NNE
Landsat 7 4.1 21:36:41 10° S 21:41:19 66° WSW 21:46:06 10° NNW
Cosmos 2082 Rocket 3.4 21:37:00 10° NW 21:42:12 37° WSW 21:47:22 10° S
SeaSat 1 4.4 21:42:08 10° E 21:43:46 11° E 21:44:35 11° ESE
STARLINK-1099 3.6 21:40:25 10° WNW 21:44:33 72° SSW 21:47:31 18° SE
Cosmos 1461 3.3 21:40:50 10° SW 21:44:59 69° NW 21:49:24 10° NE
SAR-Lupe-2 3.9 21:41:26 10° N 21:45:02 69° WNW 21:48:36 10° SSW
STARLINK-1225 4.3 21:41:27 10° W 21:45:32 57° NNW 21:49:39 10° ENE
STARLINK-1212 4.4 21:44:13 10° WNW 21:47:08 35° N 21:50:02 10° E
Cosmos 1975 Rocket 3.8 21:44:36 18° SSE 21:47:26 37° E 21:51:30 10° NNE
STARLINK-1105 4.4 21:44:41 10° WNW 21:47:36 35° N 21:50:30 10° E
Meteor 1-23 Rocket 4.3 21:42:43 10° S 21:48:25 86° W 21:54:06 10° N
STARLINK-1247 4.4 21:45:34 10° WNW 21:48:29 36° N 21:51:25 10° E
STARLINK-1227 4.3 21:46:03 10° WNW 21:48:58 36° N 21:51:53 10° E
BREEZE-M DEB (TANK) 4.2 21:29:27 10° SW 21:49:17 69° SSE 21:53:53 10° ENE
STARLINK-1104 3.7 21:45:23 10° WNW 21:49:31 67° SSW 21:52:18 20° SE
STARLINK-1226 4.3 21:46:55 10° WNW 21:49:50 36° N 21:52:46 10° E
BREEZE-M DEB (TANK) 3.2 21:45:37 10° W 21:50:30 74° N 21:53:58 10° E
STARLINK-1230 4.4 21:46:27 10° W 21:50:31 55° NNW 21:54:37 10° ENE
STARLINK-1215 4.3 21:47:48 10° WNW 21:50:45 36° NNE 21:53:41 10° E
STARLINK-1217 4.3 21:49:37 10° WNW 21:52:34 37° N 21:55:31 10° E
Cosmos 2369 Rocket 2.8 21:49:04 15° SSE 21:53:13 37° ESE 21:58:21 10° NE
STARLINK-1229 4.3 21:50:33 10° WNW 21:53:29 37° NNE 21:56:26 10° E
STARLINK-1270 4.3 21:51:27 10° WNW 21:54:23 37° NNE 21:57:20 10° E
STARLINK-1144 3.7 21:50:23 10° WNW 21:54:29 63° SSW 21:57:05 21° SE
STARLINK-1243 4.5 21:51:28 10° W 21:55:32 53° NNW 21:59:37 10° ENE
STARLINK-1189 4.2 21:53:14 10° WNW 21:56:11 38° NNE 21:59:08 10° E
STARLINK-1188 4.2 21:54:09 10° WNW 21:57:06 38° NNE 22:00:04 10° E
SPOT 5 3.1 21:53:31 17° SSE 21:57:42 89° WSW 22:03:06 10° NNW
STARLINK-1187 4.1 21:55:15 10° WNW 21:58:13 39° NNE 22:01:10 10° E
ATLAS CENTAUR R/B 3.6 21:59:35 11° ESE 21:59:35 11° ESE 22:00:23 10° E
STARLINK-1103 3.8 21:55:22 10° WNW 21:59:27 58° SW 22:01:51 23° SE
STARLINK-1191 4.2 21:56:35 10° WNW 21:59:32 38° NNE 22:02:29 10° E
STARLINK-1221 4.2 21:57:33 10° WNW 22:00:29 38° NNE 22:03:26 10° E
STARLINK-1222 4.2 21:58:23 10° WNW 22:01:21 39° NNE 22:04:17 10° E
STARLINK-1214 4.2 21:59:17 10° WNW 22:02:14 39° NNE 22:05:12 10° E
NOSS 2-2 (C) 3.1 21:58:54 10° SW 22:02:28 88° SE 22:06:31 10° NE
EXPRESS MD2 3.6 21:59:58 10° WSW 22:03:22 81° SSE 22:10:11 10° ENE
ERS-1 Rocket 3.2 21:59:40 16° S 22:03:42 69° WSW 22:08:45 10° NNW
STARLINK-1101 3.9 22:00:21 10° WNW 22:04:24 54° SW 22:06:38 24° SSE
Okean 2 3.5 22:02:00 20° S 22:04:42 61° E 22:08:50 10° NNE
Meteor 1-22 Rocket 4.3 21:59:01 10° N 22:04:58 81° ENE 22:09:05 20° SSE
Cosmos 2026 Rocket 4.2 22:00:23 17° SSE 22:05:07 55° E 22:11:19 10° NNE
BREEZE M DEB (TANK) 2.1 22:01:27 10° WSW 22:06:07 77° SSE 22:08:20 10° ENE
ATLAS 2AS CENTAUR R/B 3.7 22:00:30 15° S 22:06:16 35° ESE 22:13:15 10° NE
STARLINK-1228 3.9 22:04:42 10° WNW 22:08:08 51° NNE 22:11:08 13° E
Cosmos 1953 4.4 22:06:07 10° NNE 22:08:46 17° ENE 22:10:41 13° E
NOSS 3-2 (A) 4.1 22:01:18 10° NW 22:08:48 85° SW 22:15:11 19° SE
STARLINK-1102 4.0 22:05:22 10° WNW 22:09:23 50° SW 22:11:26 26° SSE
Cosmos 1805 3.5 22:05:57 10° NNW 22:09:51 66° W 22:12:24 20° S
Cosmos 1470 3.8 22:06:35 10° N 22:10:07 33° ENE 22:11:51 22° ESE
STARLINK-1235 3.8 22:07:27 10° WNW 22:10:36 48° NNE 22:13:12 14° E
Okean 1 Rocket 4.1 22:07:10 10° NNW 22:11:24 43° W 22:15:06 13° SSW
Resurs 01 Rocket 4.2 22:09:24 10° WSW 22:11:48 14° W 22:14:12 10° NW
Cosmos 968 Rocket 4.0 22:09:17 10° NNW 22:14:19 50° ENE 22:17:31 21° SE
STARLINK-1111 4.0 22:10:21 10° WNW 22:14:20 47° SW 22:16:12 27° SSE
Cosmos 1455 Rocket 3.1 22:12:46 10° N 22:17:07 67° E 22:19:25 26° SSE
STARLINK-1073 4.2 22:15:21 10° WNW 22:19:18 43° SW 22:20:59 28° SSE
Nadezhda 4 Rocket 4.5 22:14:16 10° SSW 22:20:19 59° WNW 22:26:22 10° N
ATLAS 5 CENTAUR R/B 3.2 22:21:46 20° ESE 22:21:46 20° ESE 22:23:05 10° E
USA 238 DEB 3.9 22:13:29 10° NW 22:20:41 75° SW 22:25:51 22° SSE
USA 238 3.9 22:13:35 10° NW 22:20:47 76° SW 22:25:58 22° SSE
SL-8 R/B 4.2 22:17:27 10° W 22:22:01 44° SSW 22:24:13 26° SSE
Abrixas rocket 3.7 22:21:14 10° W 22:23:18 20° SW 22:23:18 20° SW
Cosmos 1758 4.0 22:19:47 10° N 22:23:40 41° ENE 22:25:25 26° SE
STARLINK-1121 4.3 22:20:21 10° WNW 22:24:15 40° SW 22:25:46 28° S
SL-4 R/B 2.7 22:20:02 10° SSW 22:24:30 41° SE 22:29:04 10° ENE
Cosmos 1842 3.1 22:24:08 26° S 22:26:13 80° E 22:30:08 10° NNE
Terra 2.0 22:23:15 22° S 22:26:18 66° WSW 22:31:04 10° NNW
Meteor 2-13 Rocket 4.5 22:23:30 20° S 22:27:52 70° E 22:34:02 10° NNE
STARLINK-1234 3.4 22:25:12 10° WNW 22:28:27 61° NNE 22:30:16 23° E
STARLINK-1106 4.4 22:25:23 10° WNW 22:29:13 37° SW 22:30:34 29° S
STARLINK-1112 4.5 22:30:22 10° WNW 22:34:09 34° SW 22:35:19 28° S
Cosmos 1503 Rocket 4.4 22:29:16 10° NNW 22:34:29 55° ENE 22:37:35 24° SE
STARLINK-1209 3.2 22:31:21 10° WNW 22:34:39 69° NNE 22:36:13 28° E
Cosmos 1733 4.2 22:39:00 10° NNW 22:42:35 40° W 22:44:30 22° SSW
Cosmos 2263 4.2 22:39:18 22° S 22:42:58 63° ESE 22:48:31 10° NNE
Cosmos 1536 Rocket 4.0 22:45:43 32° SE 22:47:12 46° E 22:51:24 10° NNE
JB-3 4.4 22:46:18 10° NNE 22:50:29 85° WNW 22:52:29 30° SSW
Cosmos 1271 Rocket 2.7 22:49:29 39° SSE 22:50:47 68° E 22:54:42 10° NNE
Cosmos 1242 Rocket 2.5 22:49:25 35° SSW 22:50:53 82° W 22:54:35 10° N
STARLINK-60 2.7 22:52:20 42° SW 22:53:12 67° SSE 22:56:22 10° ENE
Cosmos 1354 Rocket 4.1 22:48:33 10° NNW 22:53:52 69° ENE 22:56:35 29° SE
Meteor 1-21 4.2 22:50:09 22° SSW 22:53:53 85° W 22:59:32 10° N
Cosmos 1544 Rocket 3.6 22:49:33 10° NNW 22:53:54 71° W 22:55:47 33° S
COSMOS 2455 3.4 22:52:50 28° SSE 22:55:07 38° ESE 23:00:39 10° NE
Spot 4 4.0 22:53:29 31° SE 22:55:46 66° ENE 23:00:36 10° N
Cosmos 1486 Rocket 4.2 22:50:43 10° NNW 22:55:57 62° WSW 22:58:32 29° S
Cosmos 1833 4.1 22:52:36 10° NNW 22:58:16 90° ENE 23:01:10 30° SSE
STARLINK-1205 4.5 22:54:37 10° WNW 22:58:41 50° NNE 23:02:44 10° E
Cosmos 2297 Rocket 4.5 22:56:26 10° N 23:00:20 19° NE 23:04:13 10° E
USA 215 3.6 22:54:07 10° ESE 23:00:35 64° NNE 23:07:03 10° NW
Cosmos 1707 2.7 22:59:44 43° SSE 23:00:52 70° E 23:04:46 10° NNE
SL-27 R/B 3.7 22:58:51 10° NW 23:02:04 31° WSW 23:03:01 27° SW
STARLINK-1218 4.4 22:59:38 10° WNW 23:03:42 52° NNE 23:07:45 10° E
Cosmos 1174 4.3 23:06:36 32° E 23:06:36 32° E 23:09:31 10° NE
Cosmos 1726 2.4 23:02:45 10° N 23:06:26 55° ENE 23:07:20 42° SE
STARLINK-1254 4.3 23:04:36 10° WNW 23:08:41 54° NNE 23:12:41 10° E
ALOS 2 3.3 23:07:47 29° ESE 23:09:34 44° ENE 23:13:45 10° N
COSMOS 2487 2.8 23:06:24 10° NNW 23:09:49 54° ENE 23:10:32 44° ESE
CENTAUR R/B 3.3 23:05:03 10° NW 23:13:03 67° SW 23:18:17 27° SSE
STARLINK-1231 4.2 23:09:34 10° WNW 23:13:40 56° NNE 23:17:27 12° E
Meteor 1-16 Rocket 4.2 23:09:51 10° N 23:15:22 67° ENE 23:17:49 33° SSE
Cosmos 1867 3.5 23:10:49 10° NW 23:16:18 78° SW 23:18:45 34° SSE
ATLAS 3B R/B 2.8 23:09:36 10° NW 23:16:24 77° NE 23:21:09 22° SE
EO 1 Del DPAF 3.2 23:14:31 10° NNE 23:18:19 79° WNW 23:19:30 42° SSW
NOSS 3-2 (C) 4.3 23:11:04 10° NW 23:18:26 56° WSW 23:23:02 27° S
STARLINK-1232 4.2 23:14:34 10° WNW 23:18:41 58° NNE 23:22:15 13° E
Cosmos 1992 Rocket 3.9 23:16:14 27° SSW 23:19:09 87° WNW 23:24:25 10° NNE
Cosmos 1606 Rocket 4.4 23:16:03 10° N 23:20:06 38° ENE 23:21:36 29° ESE
Cosmos 1943 Rocket 3.4 23:15:31 10° WSW 23:20:44 41° NW 23:26:03 10° NNE
SeaSat 1 2.4 23:17:04 10° NNE 23:22:02 75° ESE 23:24:20 32° SSW
STARLINK-29 3.7 23:24:02 40° E 23:24:02 40° E 23:26:17 10° ENE
STARLINK-1212 2.9 23:20:01 10° WNW 23:22:54 67° WSW 23:22:54 67° WSW
STARLINK-1105 2.9 23:20:30 10° WNW 23:23:20 65° WSW 23:23:20 65° WSW
STARLINK-1208 4.1 23:19:32 10° WNW 23:23:39 60° NNE 23:27:00 15° E
STARLINK-1247 2.9 23:21:22 10° WNW 23:24:14 65° WSW 23:24:14 65° WSW
STARLINK-1227 3.0 23:21:52 10° WNW 23:24:39 62° WSW 23:24:39 62° WSW
STARLINK-1226 3.0 23:22:44 10° WNW 23:25:31 61° WSW 23:25:31 61° WSW
ATLAS CENTAUR R/B 3.5 23:25:05 10° NNW 23:26:32 16° NNE 23:28:26 10° ENE
STARLINK-1215 3.0 23:23:37 10° WNW 23:26:23 60° WSW 23:26:23 60° WSW
NOSS 3-4 (A) 3.3 23:23:52 19° SW 23:28:21 84° SE 23:34:46 10° NE
NOSS 3-4 (C) 3.3 23:24:01 19° SW 23:28:27 83° SE 23:34:52 10° NE
STARLINK-1217 3.1 23:25:26 10° WNW 23:28:07 56° WSW 23:28:07 56° WSW
STARLINK-1271 4.0 23:24:33 10° WNW 23:28:40 63° NNE 23:31:49 17° E
STARLINK-1229 3.2 23:26:22 10° WNW 23:29:01 54° WSW 23:29:01 54° WSW
RESURS DK-1 3.4 23:29:48 30° ESE 23:29:55 30° ESE 23:33:32 10° NE
STARLINK-1270 3.2 23:27:15 10° WNW 23:29:53 53° WSW 23:29:53 53° WSW
STARLINK-1189 3.3 23:29:03 10° WNW 23:31:36 50° W 23:31:36 50° W
Meteor 2-10 4.1 23:27:44 10° NNW 23:32:44 65° W 23:34:44 35° SSW
STARLINK-1188 3.4 23:29:58 10° WNW 23:32:29 48° W 23:32:29 48° W
Cosmos 2084 4.5 23:33:36 30° ESE 23:33:36 30° ESE 23:37:29 10° ENE
STARLINK-1154 3.9 23:29:32 10° WNW 23:33:40 66° NNE 23:36:35 19° ESE
Cosmos 2315 Rocket 4.1 23:27:42 10° N 23:33:55 68° E 23:36:59 31° SSE
BREEZE-M R/B 4.5 23:31:45 28° S 23:34:02 35° SSE 23:38:13 10° E
STARLINK-1187 3.7 23:31:06 10° WNW 23:33:23 40° W 23:33:23 40° W
STARLINK-1191 3.5 23:32:24 10° WNW 23:34:47 43° W 23:34:47 43° W
Cosmos 1626 3.9 23:36:00 19° E 23:36:24 19° E 23:39:05 10° NE
STARLINK-1221 3.6 23:33:21 10° WNW 23:35:42 42° W 23:35:42 42° W
Cosmos 1340 Rocket 2.9 23:33:04 10° NNW 23:37:07 70° W 23:38:06 48° SSW
Cosmos 2369 Rocket 3.3 23:31:49 10° SW 23:37:11 42° NW 23:42:33 10° NNE
STARLINK-1222 3.6 23:34:13 10° WNW 23:36:31 41° W 23:36:31 41° W
ATLAS CENTAUR R/B 1.3 23:35:42 39° SSW 23:37:17 84° SE 23:41:25 10° NE
Cosmos 2227 Rocket 4.0 23:32:56 10° N 23:37:41 26° NE 23:42:24 10° ESE
STARLINK-1214 3.7 23:35:07 10° WNW 23:37:23 40° W 23:37:23 40° W
STARLINK-1197 3.8 23:34:29 10° WNW 23:38:38 70° NNE 23:41:21 21° ESE
S3M 4.3 23:33:40 10° NNW 23:39:42 59° W 23:42:52 29° SSW
Cosmos 1908 3.3 23:37:56 10° N 23:41:45 66° E 23:42:29 51° SE
Cosmos 1025 Rocket 3.9 23:39:50 26° SW 23:41:47 42° WNW 23:45:54 10° N
STARLINK-1198 3.7 23:39:28 10° WNW 23:43:37 73° NNE 23:46:07 23° ESE
Thor Agena Rocket 4.2 23:39:21 10° N 23:44:30 52° WNW 23:47:47 21° SW
Aureole 3 2.6 23:41:18 10° NNW 23:44:31 78° W 23:44:31 78° W
STARLINK-1228 4.1 23:42:02 10° WNW 23:44:34 34° WSW 23:44:34 34° WSW
Cosmos 1953 2.9 23:41:36 10° NNW 23:45:27 46° W 23:46:22 38° SW
STARLINK-1235 4.4 23:43:52 10° WNW 23:45:48 28° W 23:45:48 28° W
STARLINK-1199 3.7 23:44:28 10° WNW 23:48:37 77° NNE 23:50:55 25° ESE
SL-4 R/B 2.9 23:50:08 23° NW 23:50:08 23° NW 23:51:12 10° NNW
Cosmos 1656 Rocket 4.1 23:46:09 19° SW 23:50:13 60° WNW 23:55:44 10° NNE
Nimbus 7 Rocket 4.4 23:44:50 10° NNE 23:50:57 89° WNW 23:54:03 31° SSW
KORONAS-FOTON 3.7 23:52:25 59° SSE 23:53:02 74° E 23:56:53 10° NNE
STARLINK-1210 3.6 23:49:26 10° WNW 23:53:36 81° NNE 23:55:42 28° ESE
